SB KEPS @ AMSAT $ORB14331.O Orbital Elements 14331.OSCAR
HR AMSAT ORBITAL ELEMENTS FOR OSCAR SATELLITES FROM WA5QGD FORT WORTH,TX November 27, 2014 BID: ORB14331.O TO ALL RADIO AMATEURS BT
Satellite: AO-07 Catalog number: 07530 Epoch time: 14331.01277297 Element set: 128 Inclination: 101.4941 deg RA of node: 307.6031 deg Eccentricity: 0.0011915 Arg of perigee: 338.9941 deg Mean anomaly: 067.5751 deg Mean motion: 12.53609260 rev/day Decay rate: -1.0e-08 rev/day^2 Epoch rev: 83192 Checksum: 276
Satellite: FO-29 Catalog number: 24278 Epoch time: 14331.86913483 Element set: 527 Inclination: 098.5176 deg RA of node: 323.1527 deg Eccentricity: 0.0349702 Arg of perigee: 232.8230 deg Mean anomaly: 191.0353 deg Mean motion: 13.53037480 rev/day Decay rate: -9.0e-08 rev/day^2 Epoch rev: 90280 Checksum: 303
Satellite: SO-33 Catalog number: 25509 Epoch time: 14330.42792823 Element set: 889 Inclination: 031.4322 deg RA of node: 320.9982 deg Eccentricity: 0.0348690 Arg of perigee: 096.0188 deg Mean anomaly: 028.7397 deg Mean motion: 14.29754135 rev/day Decay rate: 3.70e-06 rev/day^2 Epoch rev: 84038 Checksum: 330
Satellite: RS-22 Catalog number: 27939 Epoch time: 14331.70660771 Element set: 77 Inclination: 097.8207 deg RA of node: 137.8883 deg Eccentricity: 0.0012578 Arg of perigee: 311.4056 deg Mean anomaly: 048.6065 deg Mean motion: 14.65551840 rev/day Decay rate: 1.680e-05 rev/day^2 Epoch rev: 59667 Checksum: 333
Satellite: HO-68 Catalog number: 36122 Epoch time: 14331.75160459 Element set: 156 Inclination: 100.2276 deg RA of node: 018.4803 deg Eccentricity: 0.0007395 Arg of perigee: 219.4494 deg Mean anomaly: 140.6080 deg Mean motion: 13.16320719 rev/day Decay rate: -6.0e-07 rev/day^2 Epoch rev: 23795 Checksum: 284
Satellite: AO-73 Catalog number: 39444 Epoch time: 14331.44946284 Element set: 317 Inclination: 097.7581 deg RA of node: 036.4594 deg Eccentricity: 0.0062362 Arg of perigee: 073.3997 deg Mean anomaly: 287.4051 deg Mean motion: 14.79111651 rev/day Decay rate: 4.065e-05 rev/day^2 Epoch rev: 5359 Checksum: 332
Satellite: EO-79 Catalog number: 40025 Epoch time: 14331.69981928 Element set: 476 Inclination: 097.9643 deg RA of node: 226.6000 deg Eccentricity: 0.0014053 Arg of perigee: 117.0433 deg Mean anomaly: 243.2230 deg Mean motion: 14.85979447 rev/day Decay rate: 4.384e-05 rev/day^2 Epoch rev: 2386 Checksum: 315
/EX SB KEPS @ AMSAT $ORB14331.D Orbital Elements 14331.MICROS
HR AMSAT ORBITAL ELEMENTS FOR THE MICROSATS FROM WA5QGD FORT WORTH,TX November 27, 2014 BID: ORB14331.D TO ALL RADIO AMATEURS BT
Satellite: UO-11 Catalog number: 14781 Epoch time: 14331.31848471 Element set: 674 Inclination: 097.8320 deg RA of node: 028.1003 deg Eccentricity: 0.0008649 Arg of perigee: 019.2696 deg Mean anomaly: 340.8843 deg Mean motion: 14.81937138 rev/day Decay rate: 1.103e-05 rev/day^2 Epoch rev: 65212 Checksum: 296
Satellite: AO-16 Catalog number: 20439 Epoch time: 14331.07000182 Element set: 180 Inclination: 098.5225 deg RA of node: 265.4438 deg Eccentricity: 0.0011527 Arg of perigee: 043.4013 deg Mean anomaly: 020.7631 deg Mean motion: 14.32436550 rev/day Decay rate: 3.49e-06 rev/day^2 Epoch rev: 29780 Checksum: 262
Satellite: LO-19 Catalog number: 20442 Epoch time: 14330.81130514 Element set: 114 Inclination: 098.4936 deg RA of node: 265.3550 deg Eccentricity: 0.0012246 Arg of perigee: 032.8960 deg Mean anomaly: 327.2984 deg Mean motion: 14.32634616 rev/day Decay rate: 2.28e-06 rev/day^2 Epoch rev: 29796 Checksum: 296
Satellite: AO-27 Catalog number: 22825 Epoch time: 14330.82841576 Element set: 828 Inclination: 098.6829 deg RA of node: 276.1912 deg Eccentricity: 0.0008679 Arg of perigee: 173.8924 deg Mean anomaly: 239.0966 deg Mean motion: 14.29789104 rev/day Decay rate: 1.91e-06 rev/day^2 Epoch rev: 10402 Checksum: 340
Satellite: IO-26 Catalog number: 22826 Epoch time: 14330.84898684 Element set: 585 Inclination: 098.6770 deg RA of node: 276.4065 deg Eccentricity: 0.0009333 Arg of perigee: 166.5087 deg Mean anomaly: 193.6347 deg Mean motion: 14.30096740 rev/day Decay rate: 2.21e-06 rev/day^2 Epoch rev: 10416 Checksum: 324
Satellite: GO-32 Catalog number: 25397 Epoch time: 14331.86879850 Element set: 507 Inclination: 098.4927 deg RA of node: 283.9333 deg Eccentricity: 0.0001694 Arg of perigee: 149.9066 deg Mean anomaly: 267.4989 deg Mean motion: 14.23488643 rev/day Decay rate: 1.35e-06 rev/day^2 Epoch rev: 85115 Checksum: 358
Satellite: NO-44 Catalog number: 26931 Epoch time: 14331.61951900 Element set: 762 Inclination: 067.0521 deg RA of node: 336.9929 deg Eccentricity: 0.0007495 Arg of perigee: 271.7552 deg Mean anomaly: 088.2691 deg Mean motion: 14.30201358 rev/day Decay rate: 2.92e-06 rev/day^2 Epoch rev: 68697 Checksum: 323
Satellite: SO-50 Catalog number: 27607 Epoch time: 14331.53447044 Element set: 584 Inclination: 064.5570 deg RA of node: 094.2727 deg Eccentricity: 0.0066977 Arg of perigee: 329.5108 deg Mean anomaly: 030.2106 deg Mean motion: 14.74168990 rev/day Decay rate: 1.336e-05 rev/day^2 Epoch rev: 64155 Checksum: 312
Satellite: CO-55 Catalog number: 27844 Epoch time: 14331.85901888 Element set: 79 Inclination: 098.6975 deg RA of node: 338.2767 deg Eccentricity: 0.0010320 Arg of perigee: 157.7240 deg Mean anomaly: 322.6567 deg Mean motion: 14.21631709 rev/day Decay rate: 4.36e-06 rev/day^2 Epoch rev: 59183 Checksum: 336
Satellite: CO-57 Catalog number: 27848 Epoch time: 14330.97470216 Element set: 19 Inclination: 098.7072 deg RA of node: 337.2054 deg Eccentricity: 0.0010099 Arg of perigee: 166.6961 deg Mean anomaly: 258.8502 deg Mean motion: 14.21301611 rev/day Decay rate: 4.50e-06 rev/day^2 Epoch rev: 59162 Checksum: 301
Satellite: AO-51 Catalog number: 28375 Epoch time: 14330.84743860 Element set: 0 Inclination: 098.2705 deg RA of node: 272.3729 deg Eccentricity: 0.0082279 Arg of perigee: 220.0376 deg Mean anomaly: 139.4731 deg Mean motion: 14.41510724 rev/day Decay rate: 2.91e-06 rev/day^2 Epoch rev: 54733 Checksum: 294
Satellite: CP3 Catalog number: 31129 Epoch time: 14331.51547098 Element set: 909 Inclination: 097.9547 deg RA of node: 301.4333 deg Eccentricity: 0.0096674 Arg of perigee: 221.5671 deg Mean anomaly: 254.8127 deg Mean motion: 14.55183712 rev/day Decay rate: 1.637e-05 rev/day^2 Epoch rev: 40378 Checksum: 315
Satellite: CO-65 Catalog number: 32785 Epoch time: 14331.84027208 Element set: 126 Inclination: 097.6788 deg RA of node: 017.6160 deg Eccentricity: 0.0013788 Arg of perigee: 016.8441 deg Mean anomaly: 042.6662 deg Mean motion: 14.85947400 rev/day Decay rate: 2.386e-05 rev/day^2 Epoch rev: 35632 Checksum: 320
Satellite: PRISM Catalog number: 33493 Epoch time: 14331.80096359 Element set: 523 Inclination: 098.2504 deg RA of node: 154.6296 deg Eccentricity: 0.0016343 Arg of perigee: 271.0658 deg Mean anomaly: 088.8702 deg Mean motion: 14.90969573 rev/day Decay rate: 7.908e-05 rev/day^2 Epoch rev: 31654 Checksum: 328
Satellite: SOHLA-1 Catalog number: 33496 Epoch time: 14331.86957097 Element set: 523 Inclination: 098.1885 deg RA of node: 093.4130 deg Eccentricity: 0.0007520 Arg of perigee: 087.2145 deg Mean anomaly: 028.3556 deg Mean motion: 14.71043398 rev/day Decay rate: 8.34e-06 rev/day^2 Epoch rev: 31357 Checksum: 312
Satellite: TISAT-1 Catalog number: 36799 Epoch time: 14331.85811400 Element set: 739 Inclination: 098.0173 deg RA of node: 065.1758 deg Eccentricity: 0.0014165 Arg of perigee: 144.2809 deg Mean anomaly: 339.4649 deg Mean motion: 14.86808491 rev/day Decay rate: 5.282e-05 rev/day^2 Epoch rev: 23702 Checksum: 325
Satellite: STUDSAT Catalog number: 36801 Epoch time: 14331.19173057 Element set: 942 Inclination: 098.0528 deg RA of node: 076.2042 deg Eccentricity: 0.0005634 Arg of perigee: 108.7104 deg Mean anomaly: 311.8697 deg Mean motion: 15.01955945 rev/day Decay rate: 3.1063e-04 rev/day^2 Epoch rev: 23754 Checksum: 290
Satellite: ALMASAT-1 Catalog number: 38078 Epoch time: 14331.19825435 Element set: 218 Inclination: 069.4663 deg RA of node: 023.3403 deg Eccentricity: 0.0546749 Arg of perigee: 174.4811 deg Mean anomaly: 186.2709 deg Mean motion: 14.61785183 rev/day Decay rate: 5.7118e-04 rev/day^2 Epoch rev: 14534 Checksum: 321
Satellite: XATCOBEO Catalog number: 38082 Epoch time: 14243.34478676 Element set: 563 Inclination: 069.3815 deg RA of node: 097.0364 deg Eccentricity: 0.0033293 Arg of perigee: 225.1799 deg Mean anomaly: 135.4582 deg Mean motion: 16.41261006 rev/day Decay rate: 1.3583328e-01 rev/day^2 Epoch rev: 13623 Checksum: 317
Satellite: CUBEBUG-1 Catalog number: 39153 Epoch time: 14331.52076231 Element set: 675 Inclination: 098.0325 deg RA of node: 051.4512 deg Eccentricity: 0.0017877 Arg of perigee: 180.6522 deg Mean anomaly: 179.4668 deg Mean motion: 14.78331459 rev/day Decay rate: 2.876e-05 rev/day^2 Epoch rev: 8567 Checksum: 321
Satellite: ESTCUBE-1 Catalog number: 39161 Epoch time: 14331.77034640 Element set: 700 Inclination: 098.0874 deg RA of node: 051.4130 deg Eccentricity: 0.0008633 Arg of perigee: 232.7070 deg Mean anomaly: 127.3336 deg Mean motion: 14.70475768 rev/day Decay rate: 2.583e-05 rev/day^2 Epoch rev: 8363 Checksum: 283
Satellite: DUCHIFAT-1 Catalog number: 40021 Epoch time: 14331.67887127 Element set: 476 Inclination: 097.9669 deg RA of node: 226.6634 deg Eccentricity: 0.0015137 Arg of perigee: 120.5056 deg Mean anomaly: 239.7678 deg Mean motion: 14.86356602 rev/day Decay rate: 5.869e-05 rev/day^2 Epoch rev: 2385 Checksum: 332
Satellite: NANOSATCBR1 Catalog number: 40024 Epoch time: 14331.76003563 Element set: 469 Inclination: 097.9644 deg RA of node: 226.6789 deg Eccentricity: 0.0014344 Arg of perigee: 118.4225 deg Mean anomaly: 241.8449 deg Mean motion: 14.86152724 rev/day Decay rate: 5.299e-05 rev/day^2 Epoch rev: 2386 Checksum: 314
